Location: Siratepeler Tepesi
(39.1042°N, 32.0781°E)
Time: 02:03:08
(UTC+00:00)

Cosmos 1933 Rocket - Pass Details

Date: 11 April 2026
Orbit: 600 x 622 km, 82.5° (Epoch: 13 May)

Event Time Altitude Azimuth Distance (km) Brightness Sun altitude
Exits shadow 18:21:43 13° 200° (SSW) 1,742 5.7 -21.8°
Maximum altitude 18:25:27 60° 279° (W) 702 4.0 -22.4°
Drops below altitude 10° 18:29:48 10° 360° (N) 1,985 6.6 -23.1°
Sets 18:32:04 0° 4° (N) 2,898 7.4 -23.5°
